Change the Weather History Date:

Sunday, March 10, 2013

  Actual Average Record
Temperature  
Mean Temperature 45 °F 42 °F  
Max Temperature 61 °F 54 °F 69 °F (2005)
Min Temperature 28 °F 29 °F 4 °F (1951)
Degree Days  
Heating Degree Days 20 23  
Month to date heating degree days 223 244  
Since 1 July heating degree days 4186 4771  
Cooling Degree Days 0 0  
Month to date cooling degree days 0 0  
Year to date cooling degree days 0 0  
Moisture  
Dew Point 30 °F    
Average Humidity 56    
Maximum Humidity 78    
Minimum Humidity 33    
Precipitation  
Precipitation 0.00 in 0.03 in 0.41 in (1995)
Month to date precipitation 0.50 0.25  
Year to date precipitation 0.63 2.17  
Snow  
Snow 0.00 in 0.00 in T in (2006)
Month to date snowfall T 0.4  
Year to date snowfall 1.1 8.3  
Since 1 July snowfall 15.3 21.3  
Snow Depth 0.00 in    
Sea Level Pressure  
Sea Level Pressure 30.35 in    
Wind  
Wind Speed 2 mph (West)    
Max Wind Speed 10 mph    
Max Gust Speed 33 mph    
Visibility 10 miles    
Events      
T = Trace of Precipitation, MM = Missing Value Source: NWS Daily Summary

Daily Weather History Graph

Daily Weather History Graph

Search for Another Location

Airport or City:

Trip Planner

Search our weather history database for the weather conditions in past years. The results will help you decide how hot, cold, wet, or windy it might be!

Date:

Astronomy

Mar. 10, 2013 Rise Set
Actual Time 7:23 AM PDT 7:01 PM PDT
Civil Twilight 6:53 AM PDT 7:31 PM PDT
Nautical Twilight 6:18 AM PDT 8:06 PM PDT
Astronomical Twilight 5:43 AM PDT 8:42 PM PDT
Moon 6:28 AM PDT (3/10) 6:14 PM PDT (3/10)
Length of Visible Light 12h 37m
Length of Day
11h 37m
Waning Crescent, 1% of the Moon is Illuminated
Mar 10
Waning Crescent
Mar 11
New
Mar 19
First Quarter
Mar 27
Full
Apr 2
Last Quarter

Hourly Weather History & Observations

Time (PDT) Temp. Windchill Dew Point Humidity Pressure Visibility Wind Dir Wind Speed Gust Speed Precip Events Conditions
12:53 AM 30.9 °F 26.2 °F 24.1 °F 76% 30.42 in 10.0 mi West 4.6 mph - N/A   Clear
1:53 AM 30.0 °F 22.4 °F 24.1 °F 79% 30.43 in 10.0 mi West 8.1 mph - N/A   Clear
3:53 AM 28.9 °F - 23.0 °F 78% 30.42 in 10.0 mi Calm Calm - N/A   Clear
5:53 AM 30.0 °F 26.5 °F 24.1 °F 79% 30.43 in 10.0 mi WSW 3.5 mph - N/A   Clear
6:53 AM 33.1 °F - 26.1 °F 75% 30.42 in 10.0 mi Calm Calm - N/A   Mostly Cloudy
7:53 AM 34.0 °F - 27.0 °F 75% 30.42 in 10.0 mi Calm Calm - N/A   Mostly Cloudy
8:53 AM 37.0 °F - 28.0 °F 70% 30.42 in 10.0 mi Calm Calm - N/A   Mostly Cloudy
9:53 AM 44.1 °F - 30.0 °F 58% 30.39 in 10.0 mi Calm Calm - N/A   Mostly Cloudy
10:53 AM 45.0 °F - 28.9 °F 53% 30.38 in 10.0 mi Calm Calm - N/A   Mostly Cloudy
11:53 AM 48.0 °F - 30.0 °F 50% 30.35 in 10.0 mi Calm Calm - N/A   Mostly Cloudy
12:53 PM 52.0 °F - 30.0 °F 43% 30.34 in 10.0 mi Calm Calm - N/A   Mostly Cloudy
1:53 PM 54.0 °F - 28.9 °F 38% 30.31 in 10.0 mi Calm Calm - N/A   Scattered Clouds
2:53 PM 57.9 °F - 28.0 °F 32% 30.29 in 10.0 mi Variable 3.5 mph - N/A   Mostly Cloudy
3:53 PM 57.9 °F - 28.9 °F 33% 30.30 in 10.0 mi Calm Calm - N/A   Mostly Cloudy
4:53 PM 59.0 °F - 32.0 °F 36% 30.30 in 10.0 mi Calm Calm - N/A   Mostly Cloudy
5:53 PM 60.1 °F - 33.1 °F 36% 30.29 in 10.0 mi Calm Calm - N/A   Mostly Cloudy
6:53 PM 57.0 °F - 36.0 °F 45% 30.29 in 10.0 mi NNW 6.9 mph - N/A   Mostly Cloudy
7:53 PM 54.0 °F - 36.0 °F 51% 30.30 in 10.0 mi Calm Calm - N/A   Overcast
8:53 PM 53.1 °F - 35.1 °F 50% 30.32 in 10.0 mi NW 8.1 mph - N/A   Overcast
9:53 PM 50.0 °F - 34.0 °F 54% 30.32 in 10.0 mi NW 6.9 mph - N/A   Partly Cloudy
10:53 PM 46.0 °F 44.8 °F 34.0 °F 63% 30.32 in 10.0 mi SE 3.5 mph - N/A   Mostly Cloudy
11:53 PM 39.0 °F - 30.9 °F 73% 30.33 in 10.0 mi Calm Calm - N/A   Partly Cloudy
12:53 AM 41.0 °F 37.1 °F 32.0 °F 70% 30.33 in 10.0 mi WSW 5.8 mph - N/A   Clear